Regional Weather Roundup
Issued by NWS Upton, NY

Current Version | Previous Version | Text Only | Print | Product List | Glossary On
Versions: 1 2 3 4 5 6 7 8 9 10 11 12 13 14 15 16 17 18 19 20 21 22 23 24 25 26 27 28 29 30 31 32 33 34 35 36 37 38 39 40 41 42 43 44 45 46 47 48 49 50
000 ASUS41 KOKX 300705 RWROKX REGIONAL WEATHER ROUNDUP NATIONAL WEATHER SERVICE NEW YORK NY 200 AM EST FRI JAN 30 2015 NOTE: "FAIR" INDICATES FEW OR NO CLOUDS BELOW 12,000 FEET WITH NO SIGNIFICANT WEATHER AND/OR OBSTRUCTIONS TO VISIBILITY. NYZ071-072-176-178-NJZ106-104-300800- NEW YORK CITY METRO AREA CITY SKY/WX TMP DP RH WIND PRES REMARKS CENTRAL PARK LGT SNOW 33 28 81 S8 29.94F WCI 26 LAGUARDIA APRT LGT SNOW 32 29 88 SW9 29.94F FOG WCI 24 KENNEDY INTL FLURRIES 33 30 88 SW3 29.95F NEWARK/LIBERTY LGT SNOW 31 29 92 CALM 29.93F FOG BRNX BOT. GARD N/A 32 32 100 SW6 29.95S WCI 26 TETERBORO LGT SNOW 31 28 89 S6 29.93F VSB 1 WCI 25 $$ NYZ177-179-078>081-300800- LONG ISLAND NEW YORK CITY SKY/WX TMP DP RH WIND PRES REMARKS FARMINGDALE CLOUDY 34 32 92 W5 29.95F WCI 30 ISLIP CLOUDY 34 30 85 SW5 29.93F WCI 30 SHIRLEY CLOUDY 35 31 85 W3 29.96F WESTHAMPTON CLOUDY 36 31 82 W6 29.96F WCI 31 MONTAUK POINT N/A 36 31 82 CALM 29.96F $$ NYZ052-065-067-300800- HUDSON VALLEY CITY SKY/WX TMP DP RH WIND PRES REMARKS WHITE PLAINS LGT SNOW 30 28 92 S6 29.91F FOG WCI 24 NEWBURGH LGT SNOW 27 27 100 CALM 29.90F VSB 1 MONTGOMERY LGT SNOW 26 25 96 N5 29.89F VSB 3/4 WCI 20 POUGHKEEPSIE LGT SNOW 30 27 88 CALM 29.91F VSB 3/4 ALBANY LGT SNOW 28 23 81 S10 29.87F WCI 19 $$ NJZ001-105-106-008-010-013-015-019>022-104-300800- NEW JERSEY CITY SKY/WX TMP DP RH WIND PRES REMARKS NEWARK/LIBERTY LGT SNOW 31 29 92 CALM 29.93F FOG TETERBORO LGT SNOW 31 28 89 S6 29.93F VSB 1 WCI 25 CALDWELL LGT SNOW 29 28 96 CALM 29.92F FOG MORRISTOWN LGT SNOW 32 28 86 CALM 29.92F SOMERVILLE FLURRIES 30 26 85 CALM 29.91F SUSSEX LGT SNOW 26 23 88 CALM 29.89F VSB 1 ANDOVER N/A 27 25 92 VRB3 29.89F TRENTON CLOUDY 30 26 85 CALM 29.91F MILLVILLE CLOUDY 37 27 67 S3 29.91F ATLANTIC CITY CLOUDY 38 29 70 S12 29.92F WCI 30 WRIGHTSTOWN FLURRIES 33 27 76 S6 29.89F WCI 28 TOMS RIVER CLOUDY 36 28 75 S6 29.93F WCI 31 BELMAR CLOUDY 34 27 75 S3 29.92F $$ PAZ047>061-062-071-300800- EASTERN PENNSYLVANIA CITY SKY/WX TMP DP RH WIND PRES REMARKS PHILADELPHIA CLOUDY 35 24 64 S5 29.92F WCI 31 ALLENTOWN CLOUDY 28 24 85 CALM 29.90F SCRANTON CLOUDY 27 23 85 W5 29.85R FOG WCI 22 $$ CTZ002-004>006-009-010-012-RIZ004-006-007-MAZ004-011-015-300800- SOUTHERN NEW ENGLAND IN CT CITY SKY/WX TMP DP RH WIND PRES REMARKS BRADLEY INTL CLOUDY 29 24 82 CALM 29.92F HARTFORD CLOUDY 28 25 88 CALM 29.94F DANBURY LGT SNOW 30 25 81 S3 29.93F WTRBRY/OXFORD CLOUDY 30 23 74 SW6 29.91F WCI 24 BRIDGEPORT LGT SNOW 32 31 96 SW5 29.95F FOG WCI 27 MERIDEN LGT SNOW 29 25 85 CALM 29.95F FOG NEW HAVEN LGT SNOW 33 29 85 CALM 29.95F FOG CHESTER FLURRIES 32 32 100 S5 29.94F WCI 27 GROTON LGT RAIN 36 33 89 SE9 29.95F WCI 29 WILLIMANTIC LGT SNOW 29 24 82 CALM 29.95F IN RI CITY SKY/WX TMP DP RH WIND PRES REMARKS PROVIDENCE CLOUDY 29 25 85 CALM 29.98F BLOCK ISLAND CLOUDY 37 32 81 SE9 29.95F WCI 31 WESTERLY CLOUDY 37 33 85 SE7 29.97F WCI 32 IN MA CITY SKY/WX TMP DP RH WIND PRES REMARKS BOSTON CLOUDY 29 24 82 SE9 29.99F WCI 20 WORCESTER LGT SNOW 24 23 96 SE6 29.91F FOG WCI 17 WESTFIELD LGT SNOW 27 24 89 CALM 29.92F FOG PROVINCETOWN CLOUDY 30 28 93 S6 30.01F WCI 24 NANTUCKET CLOUDY 35 28 75 SE10 30.01F WCI 27 $$ ANZ330-335-338-340-345-350-353-355-300800- COASTAL MARINE OBSERVATIONS STATION/POSITION TIME SKY/WX TEMP WIND PRES VSBY WAVE AIR SEA DIR/SP/G HT/PER (UTC) (F) (DEG/KT/KT) (MB) (MI) (FT/S) NY HARB ENTRANCE 0700 39 39 200/ 10/ 12 1013.5 3/ 5 4S FIRE IS 0700 37 N/A 3/ 5 20S FIRE ISLAND 0600 42 1015.4 3/ 4 23SW MTP 0700 N/A 4/ 4 HUDSON CANYON NOT AVBL EXECUTION ROCKS 0700 32 33 210/ 8/ 10 N/A WESTERN LI SOUND 0700 32 210/ 4/ 4 N/A 0 CENTRAL LI SOUND 0600 35 35 180/ 4/ 6 N/A 0 EASTERN LI SOUND NOT AVBL ROBBINS REEF 0600 31 180/ 11/ 12 1012.7 $$ >>>>>>>>>>>>>>>>>>>>>>>>>>>> KEY <<<<<<<<<<<<<<<<<<<<<<<<<<< > < > SKY/WX - SKY CONDITION/PRESENT WEATHER < > TMP - TEMPERATURE IN FAHRENHEIT < > DP - DEWPOINT IN FAHRENHEIT < > RH - RELATIVE HUMIDITY IN PERCENT < > WIND - DIRECTION AND SPEED IN MPH < > PRES - MEAN SEA LEVEL PRESSURE IN INCHES OF HG < > WCI - WIND CHILL INDEX < > VSB - VISIBILITY IN MILES < > HX - HEAT INDEX < > TC - TEMPERATURE IN CELSIUS < > VRB - VARIABLE WIND DIRECTION < > < >>>>>>>>>>>>>>>>>>>>>>>>>>>> KEY <<<<<<<<<<<<<<<<<<<<<<<<<<<

USA.gov is the U.S. government's official web portal to all federal, state and local government web resources and services.